Location: Guadanolo
(41.9167°N, 12.9333°E)
Time: 23:58:07
(UTC+00:00)

Meteor 1-4 Rocket - Pass Details

Date: 16 September 2019
Orbit: 449 x 504 km, 81.2° (Epoch: 16 October)

Event Time Altitude Azimuth Distance (km) Brightness Sun altitude
Rises 19:10:07 0° 354° (N) 2,527 6.6 -21.2°
Reaches altitude 10° 19:12:16 10° 359° (N) 1,635 5.5 -21.6°
Enters shadow 19:14:30 33° 17° (NNE) 798 3.6 -21.9°
